STARLINK-32417, 61673

Orbit data source: Space-Track

STARLINK-32417, 61673 is a payload satellite owned by SpaceX/Seattle (US) in LEO that was launched on Sat, 26 Oct 2024 UTC via an FALCON 9 launch vehicle from the Air Force Eastern Test Range (AFETR). Payload-class satellites include a variety of spacecraft equipped with specific instruments for various scientific and technological missions. These include communications satellites like Starlink; space stations such as the ISS; scientific satellites like the Hubble; Earth observation satellites from companies like Planet Labs, Umbra, and HawkEye 360; GPS; miniature CubeSats for education and research; and military/defense satellites.

Loading next visibility...
Identifier
61673, 2024-193N
Orbit
LEO
Country
Flag of USUS
Related business
Manufacturer
SpaceX/Seattle
Mission
Operational Commercial Communications
Bus & Motor
STARLINK V2M, Unknown motor
Mass
730 kg wet, ~700 kg dry
Launch date (UTC)
2024-10-26 (2 years ago)
Launch vehicle
FALCON 9
Launch site
Air Force Eastern Test Range (AFETR)
Object type
Payload
Rocket body
Debris
Shape & HBR
Box + 2 Pan, 17.7 m
Radar Cross Section
33.884 m², Large (>1 m²)

Expand to show TLE details & history
Last TLE update: 12 hours ago

TLE from 12 hours ago
0 STARLINK-32417
1 61673U 24193N   26126.32792354 -.00000769  00000-0 -13860-4 0  9990
2 61673  53.1590 183.1155 0000862 100.1751 259.9347 15.30187528 85353
Epoch: 2026-05-06T07:52Z
TLE epoch observation values (Epoch: 2026-05-06T07:52:12.593Z)
Latitude
-0.00004°
Longitude
-159.127°
Altitude
476.255 km
Speed
7.629 km/s
True Right ascension
12h 12m 27s
True Declination
0° 00' 00"
Sunlit
Object was in full shadow at epoch
Visualization orbit readout
Latitude
Unknown
Longitude
Unknown
Altitude
Unknown
Speed
Unknown
Apparent Right ascension
Unknown
Apparent Declination
Unknown
Sunlit
N/A
Visualization observer readout
Local Sidereal Time
03:21:54
Azimuth
Unknown
Elevation
Unknown
Doppler factor
Unknown
Orbital elements
Apogee altitude
476.1 km
Perigee altitude
474.918 km
Semi-major axis
6,853.646 km
Eccentricity
0.00009
Inclination
53.159°
RAAN
183.1155°
Arg. of periapsis
100.1751°
True anomaly
259.92497°
Mean anomaly
259.9347°
Eccentric anomaly
259.92984°
Mean motion
3.82526 °/min
Orbital period
94.11 mins
BSTAR
-0.00001386
Loading maneuver chart data...
Computing Atmospheric mass density...
Loading historical data...
Loading historical data...
Loading historical data...
Loading historical data...
Loading historical data...
Loading historical data...
Loading historical data...

Documentation

Showing up to 5 results
|